Weather History for KAUW - August, 2014

Change the Weather History Date:

Saturday, August 2, 2014

  Actual Average Record
Temperature  
Mean Temperature 70 °F 69 °F  
Max Temperature 83 °F 79 °F 99 °F (1964)
Min Temperature 56 °F 58 °F 41 °F (1920)
Degree Days  
Heating Degree Days 0 1  
Month to date heating degree days 0 2  
Since 1 June heating degree days 61 114  
Since 1 July heating degree days 39 25  
Cooling Degree Days 5 5  
Month to date cooling degree days 8 10  
Year to date cooling degree days 227 270  
Since 1 June cooling degree days 202 251  
Growing Degree Days 18 (Base 50)    
Moisture  
Dew Point 58 °F    
Average Humidity 70    
Maximum Humidity 100    
Minimum Humidity 39    
Precipitation  
Precipitation T in 0.14 in 2.45 in (2006)
Month to date precipitation 0.35 0.28  
Year to date precipitation 19.90 18.33  
Snow  
Snow 0.00 in 0.00 in 0.00 in ()
Month to date snowfall 0.0 0.0  
Since 1 June snowfall 0.0  
Since 1 July snowfall 0.0 0.0  
Snow Depth 0.00 in    
Sea Level Pressure  
Sea Level Pressure 30.12 in    
Wind  
Wind Speed 2 mph (West)    
Max Wind Speed 7 mph    
Max Gust Speed -    
Visibility 5 miles    
Events Fog    
T = Trace of Precipitation, MM = Missing Value Source: NWS Daily Summary

Daily Weather History Graph

Daily Weather History Graph

Search for Another Location

Airport or City:

Trip Planner

Search our weather history database for the weather conditions in past years. The results will help you decide how hot, cold, wet, or windy it might be!

Date:

Astronomy

Aug. 02, 2014 Rise Set
Actual Time 5:45 AM CDT 8:23 PM CDT
Civil Twilight 5:11 AM CDT 8:56 PM CDT
Nautical Twilight 4:29 AM CDT 9:38 PM CDT
Astronomical Twilight 3:40 AM CDT 10:27 PM CDT
Moon 12:25 PM CDT (8/2) 11:22 PM CDT (8/2)
Length of Visible Light 15h 45m
Length of Day
14h 38m
Waxing Crescent, 37% of the Moon is Illuminated
Aug 2
Waxing Crescent
Aug 3
First Quarter
Aug 10
Full
Aug 17
Last Quarter
Aug 25
New

Hourly Weather History & Observations

Time (CDT) Temp. Heat Index Dew Point Humidity Pressure Visibility Wind Dir Wind Speed Gust Speed Precip Events Conditions
12:54 AM 59.0 °F - 57.9 °F 96% 30.10 in 3.0 mi Calm Calm - N/A   Clear
1:50 AM 57.2 °F - 57.2 °F 100% 30.10 in 2.5 mi Calm Calm - N/A   Clear
1:54 AM 57.9 °F - 57.0 °F 97% 30.11 in 3.0 mi Calm Calm - N/A   Clear
2:37 AM 57.0 °F - 57.0 °F 100% 30.10 in 2.0 mi Calm Calm - N/A   Clear
2:54 AM 57.0 °F - 57.0 °F 100% 30.12 in 4.0 mi NNW 3.5 mph - N/A   Clear
3:30 AM 57.9 °F - 57.0 °F 97% 30.11 in 3.0 mi Calm Calm - N/A   Scattered Clouds
3:35 AM 57.9 °F - 57.0 °F 97% 30.11 in 1.8 mi Calm Calm - N/A   Mostly Cloudy
3:44 AM 57.0 °F - 57.0 °F 100% 30.11 in 0.5 mi NNW 3.5 mph - N/A Fog Fog
3:54 AM 57.9 °F - 57.0 °F 97% 30.12 in 1.0 mi NW 3.5 mph - N/A   Overcast
4:02 AM 57.0 °F - 57.0 °F 100% 30.12 in 0.5 mi NW 4.6 mph - N/A Fog Fog
4:22 AM 57.0 °F - 55.9 °F 96% 30.13 in 2.5 mi SW 3.5 mph - N/A   Overcast
4:34 AM 57.0 °F - 57.0 °F 100% 30.13 in 1.5 mi SW 5.8 mph - N/A   Overcast
4:39 AM 57.0 °F - 57.0 °F 100% 30.13 in 3.0 mi SSW 5.8 mph - N/A   Overcast
4:46 AM 57.0 °F - 57.0 °F 100% 30.13 in 2.0 mi Calm Calm - N/A   Overcast
4:54 AM 57.0 °F - 55.9 °F 96% 30.14 in 1.0 mi Calm Calm - N/A   Overcast
5:04 AM 57.0 °F - 55.9 °F 96% 30.13 in 0.5 mi NE 3.5 mph - N/A Fog Fog
5:54 AM 57.0 °F - 55.9 °F 96% 30.15 in 0.2 mi Calm Calm - N/A Fog Fog
6:54 AM 55.9 °F - 55.9 °F 100% 30.17 in 0.2 mi Calm Calm - N/A Fog Fog
7:54 AM 57.9 °F - 57.9 °F 100% 30.17 in 0.2 mi Calm Calm - N/A Fog Fog
8:00 AM 57.9 °F - 57.9 °F 100% 30.16 in 2.0 mi Calm Calm - N/A   Mostly Cloudy
8:07 AM 57.9 °F - 57.9 °F 100% 30.16 in 5.0 mi Calm Calm - N/A   Scattered Clouds
8:54 AM 64.0 °F - 60.1 °F 87% 30.17 in 7.0 mi Calm Calm - N/A   Clear
9:54 AM 71.1 °F - 61.0 °F 70% 30.16 in 10.0 mi Calm Calm - N/A   Clear
10:54 AM 75.0 °F - 57.0 °F 53% 30.16 in 10.0 mi East 3.5 mph - N/A   Clear
11:54 AM 75.9 °F - 55.9 °F 50% 30.15 in 10.0 mi SW 5.8 mph - N/A   Clear
12:54 PM 79.0 °F - 54.0 °F 42% 30.14 in 9.0 mi Calm Calm - N/A   Clear
1:54 PM 80.1 °F 80.0 °F 54.0 °F 40% 30.13 in 9.0 mi SSW 5.8 mph - N/A   Mostly Cloudy
2:54 PM 82.0 °F 81.4 °F 55.0 °F 39% 30.12 in 8.0 mi Calm Calm - N/A   Partly Cloudy
3:54 PM 81.0 °F 80.7 °F 55.0 °F 41% 30.10 in 9.0 mi Variable 4.6 mph - N/A   Partly Cloudy
4:54 PM 81.0 °F 80.8 °F 55.9 °F 42% 30.09 in 8.0 mi WNW 5.8 mph - N/A   Clear
5:54 PM 78.1 °F - 57.0 °F 48% 30.09 in 8.0 mi WSW 6.9 mph - N/A   Clear
6:54 PM 73.9 °F - 61.0 °F 64% 30.09 in 8.0 mi NW 6.9 mph - 0.00 in   Overcast
7:54 PM 75.0 °F - 63.0 °F 66% 30.09 in 8.0 mi West 4.6 mph - N/A   Clear
8:54 PM 71.1 °F - 63.0 °F 75% 30.10 in 8.0 mi South 4.6 mph - 0.00 in   Clear
9:54 PM 69.1 °F - 62.1 °F 78% 30.10 in 8.0 mi Calm Calm - N/A   Clear
10:54 PM 66.9 °F - 62.1 °F 84% 30.09 in 7.0 mi Calm Calm - N/A   Clear
11:54 PM 64.0 °F - 62.1 °F 93% 30.10 in 6.0 mi Calm Calm - N/A   Clear